Weather History for Granada, Spain

Change the Weather History Date:

Sunday, February 26, 2012

  Actual Average Record
Temperature  
Mean Temperature 46 °F -  
Max Temperature 66 °F 63 °F 73 °F (1997)
Min Temperature 26 °F 37 °F 26 °F (2012)
Degree Days  
Heating Degree Days 19    
Moisture  
Dew Point 24 °F    
Average Humidity 42    
Maximum Humidity 80    
Minimum Humidity 14    
Precipitation  
Precipitation 0.00 in - - ()
Sea Level Pressure  
Sea Level Pressure 30.19 in    
Wind  
Wind Speed 3 mph ()    
Max Wind Speed 12 mph    
Max Gust Speed -    
Visibility 18.0 miles    
Events      
Averages and records for this station are not official NWS values.
T = Trace of Precipitation, MM = Missing Value Source: Averaged Metar Reports

Daily Weather History Graph

Daily Weather History Graph

Search for Another Location

Airport:

Trip Planner

Search our weather history database for the weather conditions in past years. The results will help you decide how hot, cold, wet, or windy it might be!

Date:

Astronomy

Feb. 26, 2012 Rise Set
Actual Time 7:51 AM CET 7:05 PM CET
Civil Twilight 7:25 AM CET 7:31 PM CET
Nautical Twilight 6:54 AM CET 8:02 PM CET
Astronomical Twilight 6:24 AM CET 8:32 PM CET
Moon 9:46 AM CET (2/26) 11:41 PM CET (2/26)
Length of Visible Light 12h 06m
Length of Day
11h 14m
Waxing Crescent, 19% of the Moon is Illuminated
Feb 26
Waxing Crescent
Mar 1
First Quarter
Mar 8
Full
Mar 15
Last Quarter
Mar 22
New

Hourly Weather History & Observations

Time (CET) Temp. Windchill Dew Point Humidity Pressure Visibility Wind Dir Wind Speed Gust Speed Precip Events Conditions
1:00 AM 36 °F - 22 °F 43% 30.33 in 16 mi Calm Calm - -  
6:00 AM 28.4 °F - 23.0 °F 80% 30.21 in - Calm Calm - N/A   Clear
6:30 AM 30.2 °F - 23.0 °F 75% 30.21 in - Variable 1.2 mph - N/A   Clear
7:00 AM 27 °F - 21 °F 69% 30.34 in 19 mi WSW 2.3 mph - -  
7:00 AM 28.4 °F - 23.0 °F 80% 30.21 in - Variable 2.3 mph - N/A   Clear
7:30 AM 28.4 °F - 21.2 °F 74% 30.21 in - Variable 1.2 mph - N/A   Clear
8:00 AM 26.6 °F - 21.2 °F 80% 30.24 in - Variable 1.2 mph - N/A   Clear
8:30 AM 30.2 °F - 23.0 °F 75% 30.24 in - Variable 2.3 mph - N/A   Clear
9:00 AM 33.8 °F - 24.8 °F 70% 30.24 in - Calm Calm - N/A   Clear
9:30 AM 35.6 °F - 24.8 °F 65% 30.24 in - Calm Calm - N/A   Clear
10:30 AM 42.8 °F - 26.6 °F 53% 30.24 in - Calm Calm - N/A   Clear
11:00 AM 44.6 °F - 26.6 °F 49% 30.24 in - Variable 1.2 mph - N/A   Clear
11:30 AM 48.2 °F - 26.6 °F 43% 30.24 in - Variable 1.2 mph - N/A   Clear
12:00 PM 51.8 °F - 28.4 °F 41% 30.24 in - Variable 1.2 mph - N/A   Clear
12:30 PM 53.6 °F - 26.6 °F 35% 30.21 in - NW 4.6 mph - N/A   Clear
1:00 PM 57.2 °F - 24.8 °F 29% 30.21 in - WNW 5.8 mph - N/A   Clear
1:30 PM 60.8 °F - 24.8 °F 25% 30.18 in - WNW 4.6 mph - N/A   Clear
2:00 PM 62.6 °F - 24.8 °F 24% 30.18 in - West 4.6 mph - N/A   Clear
2:30 PM 66.2 °F - 21.2 °F 18% 30.15 in - West 6.9 mph - N/A   Clear
3:00 PM 68.0 °F - 23.0 °F 18% 30.15 in - North 6.9 mph - N/A   Clear
3:30 PM 66.2 °F - 21.2 °F 18% 30.12 in - NW 11.5 mph - N/A   Clear
4:00 PM 66.2 °F - 21.2 °F 18% 30.12 in - NW 11.5 mph - N/A   Clear
4:30 PM 66.2 °F - 21.2 °F 18% 30.12 in - NW 11.5 mph - N/A   Clear
5:00 PM 66.2 °F - 21.2 °F 18% 30.12 in - NW 11.5 mph - N/A   Clear
5:30 PM 66.2 °F - 23.0 °F 19% 30.12 in - NNW 11.5 mph - N/A   Clear
6:00 PM 64.4 °F - 23.0 °F 21% 30.15 in - NNW 11.5 mph - N/A   Clear
6:30 PM 62.6 °F - 23.0 °F 22% 30.15 in - NNW 10.4 mph - N/A   Clear
7:00 PM 60 °F - 23 °F 14% 30.14 in 19 mi NW 5.8 mph - -   Clear
7:00 PM 60.8 °F - 23.0 °F 23% 30.15 in - NW 6.9 mph - N/A   Clear
7:30 PM 57.2 °F - 23.0 °F 27% 30.15 in - West 6.9 mph - N/A   Clear
8:00 PM 53.6 °F - 24.8 °F 33% 30.18 in - WSW 8.1 mph - N/A   Clear
8:30 PM 53.6 °F - 26.6 °F 35% 30.18 in - WSW 4.6 mph - N/A   Clear
9:00 PM 51.8 °F - 26.6 °F 38% 30.18 in - SW 5.8 mph - N/A   Clear
9:30 PM 50.0 °F - 28.4 °F 43% 30.18 in - SW 5.8 mph - N/A   Clear
10:00 PM 48.2 °F - 28.4 °F 46% 30.21 in - WSW 6.9 mph - N/A   Clear
10:30 PM 48.2 °F - 26.6 °F 43% 30.21 in - WSW 5.8 mph - N/A   Clear
11:00 PM 46.4 °F - 26.6 °F 46% 30.21 in - Calm Calm - N/A   Clear
11:30 PM 42.8 °F 41.1 °F 26.6 °F 53% 30.21 in - SW 3.5 mph - N/A   Clear